Fort Collins, CO

9:34 PM MDT on May 26, 2017 (GMT -0600)
Fort Collins-Loveland Municipal

Weather History for KFNL - November, 2011

Change the Weather History Date:

Friday, November 11, 2011

  Actual Average Record
Temperature  
Mean Temperature 44 °F -  
Max Temperature 57 °F - 66 °F (2005)
Min Temperature 30 °F - 5 °F (2014)
Degree Days  
Heating Degree Days 22    
Month to date heating degree days  
Cooling Degree Days 0    
Month to date cooling degree days  
Moisture  
Dew Point 17 °F    
Average Humidity 38    
Maximum Humidity 70    
Minimum Humidity 20    
Precipitation  
Precipitation 0.00 in - 0.19 in (1997)
Sea Level Pressure  
Sea Level Pressure 29.89 in    
Wind  
Wind Speed 3 mph (North)    
Max Wind Speed 9 mph    
Max Gust Speed -    
Visibility 10 miles    
Events      
T = Trace of Precipitation, MM = Missing Value Source: NWS Daily Summary

Daily Weather History Graph

Daily Weather History Graph

Search for Another Location

Airport or City:

Trip Planner

Search our weather history database for the weather conditions in past years. The results will help you decide how hot, cold, wet, or windy it might be!

Date:

Astronomy

Nov. 11, 2011 Rise Set
Actual Time 6:41 AM MST 4:46 PM MST
Civil Twilight 6:12 AM MST 5:15 PM MST
Nautical Twilight 5:39 AM MST 5:47 PM MST
Astronomical Twilight 5:07 AM MST 6:20 PM MST
Moon 5:16 PM MST (11/11) 7:32 AM MST (11/11)
Length of Visible Light 11h 02m
Length of Day
10h 05m
Full, 99% of the Moon is Illuminated
Nov 11
Full
Nov 18
Last Quarter
Nov 24
New
Dec 2
First Quarter
Dec 10
Full

Hourly Weather History & Observations

Time (MST) Temp. Windchill Dew Point Humidity Pressure Visibility Wind Dir Wind Speed Gust Speed Precip Events Conditions
12:15 AM 37.4 °F - 14.0 °F 38% 30.00 in 10.0 mi Calm Calm - N/A   Clear
12:35 AM 35.6 °F - 14.0 °F 41% 29.99 in 10.0 mi Calm Calm - N/A   Clear
12:55 AM 33.8 °F 27.0 °F 17.6 °F 52% 30.00 in 10.0 mi SSE 8.1 mph - N/A   Clear
1:15 AM 35.6 °F 31.7 °F 15.8 °F 44% 29.99 in 10.0 mi South 4.6 mph - N/A   Clear
1:35 AM 33.8 °F - 15.8 °F 48% 29.99 in 10.0 mi Calm Calm - N/A   Clear
1:55 AM 35.6 °F - 12.2 °F 38% 29.99 in 10.0 mi Calm Calm - N/A   Clear
2:15 AM 33.8 °F 27.0 °F 12.2 °F 41% 29.99 in 10.0 mi NW 8.1 mph - N/A   Clear
2:35 AM 35.6 °F - 17.6 °F 48% 29.98 in 10.0 mi Calm Calm - N/A   Clear
2:55 AM 33.8 °F - 23.0 °F 65% 29.98 in 10.0 mi Calm Calm - N/A   Clear
3:15 AM 33.8 °F - 24.8 °F 70% 29.97 in 10.0 mi Calm Calm - N/A   Clear
3:35 AM 37.4 °F 33.8 °F 12.2 °F 36% 29.97 in 10.0 mi SE 4.6 mph - N/A   Clear
4:15 AM 30.2 °F 22.6 °F 19.4 °F 64% 29.96 in 10.0 mi South 8.1 mph - N/A   Clear
4:35 AM 30.2 °F 24.3 °F 10.4 °F 44% 29.96 in 10.0 mi SSW 5.8 mph - N/A   Clear
4:55 AM 37.4 °F 33.8 °F 17.6 °F 45% 29.96 in 10.0 mi SW 4.6 mph - N/A   Clear
5:15 AM 35.6 °F - 15.8 °F 44% 29.96 in 10.0 mi Calm Calm - N/A   Clear
5:36 AM 37.4 °F 33.8 °F 12.2 °F 36% 29.96 in 10.0 mi North 4.6 mph - N/A   Clear
5:55 AM 35.6 °F 29.9 °F 10.4 °F 35% 29.96 in 10.0 mi NNE 6.9 mph - N/A   Clear
6:35 AM 30.2 °F 21.9 °F 12.2 °F 47% 29.96 in 10.0 mi NNW 9.2 mph - N/A   Clear
6:55 AM 30.2 °F - 12.2 °F 47% 29.95 in 10.0 mi Calm Calm - N/A   Clear
7:35 AM 30.2 °F 22.6 °F 15.8 °F 55% 29.96 in 10.0 mi NNE 8.1 mph - N/A   Clear
7:55 AM 33.8 °F 27.0 °F 17.6 °F 52% 29.96 in 10.0 mi NNE 8.1 mph - N/A   Clear
8:15 AM 33.8 °F 29.6 °F 19.4 °F 56% 29.95 in 10.0 mi North 4.6 mph - N/A   Clear
8:35 AM 35.6 °F 28.6 °F 19.4 °F 52% 29.95 in 10.0 mi North 9.2 mph - N/A   Clear
8:55 AM 37.4 °F 32.1 °F 19.4 °F 48% 29.95 in 10.0 mi North 6.9 mph - N/A   Clear
9:35 AM 42.8 °F 38.6 °F 17.6 °F 36% 29.94 in 10.0 mi North 6.9 mph - N/A   Clear
9:55 AM 44.6 °F 42.2 °F 15.8 °F 31% 29.93 in 10.0 mi NNE 4.6 mph - N/A   Clear
10:15 AM 46.4 °F 43.5 °F 17.6 °F 32% 29.92 in 10.0 mi North 5.8 mph - N/A   Clear
10:35 AM 48.2 °F - 15.8 °F 27% 29.92 in 10.0 mi Calm Calm - N/A   Clear
10:55 AM 50.0 °F - 17.6 °F 28% 29.92 in 10.0 mi North 5.8 mph - N/A   Clear
11:55 AM 55.4 °F - 17.6 °F 23% 29.88 in 10.0 mi NNE 4.6 mph - N/A   Clear
12:15 PM 55.4 °F - 14.0 °F 20% 29.87 in 10.0 mi ENE 3.5 mph - N/A   Clear
12:35 PM 55.4 °F - 15.8 °F 21% 29.86 in 10.0 mi Calm Calm - N/A   Clear
1:15 PM 57.2 °F - 15.8 °F 20% 29.83 in 10.0 mi ENE 4.6 mph - N/A   Clear
1:35 PM 57.2 °F - 15.8 °F 20% 29.83 in 10.0 mi ENE 5.8 mph - N/A   Clear
1:55 PM 55.4 °F - 14.0 °F 20% 29.82 in 10.0 mi ENE 3.5 mph - N/A   Clear
2:15 PM 55.4 °F - 15.8 °F 21% 29.82 in 10.0 mi ENE 3.5 mph - N/A   Clear
2:56 PM 55.4 °F - 17.6 °F 23% 29.80 in 10.0 mi Calm Calm - N/A   Clear
3:35 PM 53.6 °F - 17.6 °F 24% 29.79 in 10.0 mi Calm Calm - N/A   Clear
3:55 PM 50.0 °F - 21.2 °F 32% 29.79 in 10.0 mi NW 4.6 mph - N/A   Clear
4:15 PM 51.8 °F - 19.4 °F 28% 29.78 in 10.0 mi NNW 4.6 mph - N/A   Clear
4:35 PM 48.2 °F - 17.6 °F 30% 29.77 in 10.0 mi NNW 3.5 mph - N/A   Clear
4:55 PM 50.0 °F - 15.8 °F 26% 29.77 in 10.0 mi WNW 4.6 mph - N/A   Clear
5:15 PM 44.6 °F 41.4 °F 17.6 °F 34% 29.77 in 10.0 mi WNW 5.8 mph - N/A   Clear
5:35 PM 46.4 °F 42.4 °F 21.2 °F 37% 29.75 in 10.0 mi NNW 8.1 mph - N/A   Clear
5:55 PM 44.6 °F 42.2 °F 17.6 °F 34% 29.75 in 10.0 mi NE 4.6 mph - N/A   Clear
6:15 PM 46.4 °F - 15.8 °F 29% 29.74 in 10.0 mi Calm Calm - N/A   Clear
6:35 PM 42.8 °F 40.1 °F 19.4 °F 39% 29.73 in 10.0 mi NNE 4.6 mph - N/A   Clear
6:56 PM 42.8 °F - 23.0 °F 46% 29.73 in 10.0 mi Calm Calm - N/A   Clear
7:55 PM 42.8 °F 38.6 °F 21.2 °F 42% 29.71 in 10.0 mi North 6.9 mph - N/A   Clear
8:15 PM 41.0 °F 39.0 °F 19.4 °F 42% 29.72 in 10.0 mi North 3.5 mph - N/A   Clear
8:35 PM 37.4 °F 33.8 °F 19.4 °F 48% 29.71 in 10.0 mi NNW 4.6 mph - N/A   Clear
8:55 PM 37.4 °F 34.9 °F 24.8 °F 60% 29.71 in 10.0 mi West 3.5 mph - N/A   Clear
9:15 PM 39.2 °F 35.9 °F 26.6 °F 61% 29.71 in 10.0 mi SW 4.6 mph - N/A   Clear
9:35 PM 41.0 °F - 17.6 °F 39% 29.70 in 10.0 mi Calm Calm - N/A   Clear
9:55 PM 41.0 °F 38.0 °F 15.8 °F 36% 29.69 in 10.0 mi East 4.6 mph - N/A   Clear
10:15 PM 46.4 °F 45.2 °F 12.2 °F 25% 29.67 in 10.0 mi North 3.5 mph - N/A   Clear
10:55 PM 37.4 °F 31.4 °F 19.4 °F 48% 29.66 in 10.0 mi NNE 8.1 mph - N/A   Clear
11:15 PM 37.4 °F 31.4 °F 19.4 °F 48% 29.66 in 10.0 mi NNE 8.1 mph - N/A   Clear
11:35 PM 35.6 °F 28.6 °F 21.2 °F 56% 29.65 in 10.0 mi NNE 9.2 mph - N/A   Clear